Torna al catalogo

STARLINK-32580

AttivoComunicazioniVLEO
NORAD 62075·PAYLOAD·🇺🇸 United States

Lanciato Nov 24, 2024 da Vandenberg Space Force Base

Loading…

Prossimi Passaggi (prossime 24 ore)

TLE

AggiornatoSource: CelesTrak SupGP

Epoca: Sep 14, 2026, 20:34 UTC

1 62075C 24217U   26257.85743056  .00043266  00000+0  12789-2 0  2572
2 62075  53.1608  21.9775 0001269  80.5154 165.1273 15.34353963    15

Traccia STARLINK-32580 in tempo reale con AllMySat

Download on the App Store